sat.trackr.live / text

‹ back to catalog

STARLINK-37339

NORAD 68735 · 2026-082H

PAYLOAD ACTIVE UNKNOWN

§ Identity

Operator
Country
US
Launch date
2026-04-15
Launch site
AFWTR
Launch vehicle
Mass (kg)
RCS (m²)

Purposes: comms

External: N2YO · Heavens-Above · Gunter

§ Orbital elements

Epoch: 2026-05-25T04:00:03.998880Z

Period
92.71 min
Inclination
97.2850°
Eccentricity
0.0002272
Mean motion
15.53181818 rev/d
Perigee alt
405.9 km
Apogee alt
409.0 km
Semi-major
6,785.6 km
B*
-3.3428e-2
RAAN
8.8268°
Arg perigee
92.3141°
Mean anomaly
106.5701°
Rev number
595

§ Raw data

STARLINK-373391 68735U 26082H   26145.16671295 -.01855443  00000+0 -33428-1 0  99942 68735  97.2850   8.8268 0002272  92.3141 106.5701 15.53181818  5957

JSON: /api/v1/satellites/68735 · /tle

For live sub-satellite position, see the globe view (requires WebGL).

§ Visibility from observer

Set your observer location to see the next 7 days of passes ≥ 10°. The values pass through the URL so the page stays shareable.

No JS? Fill the form by hand. The geolocation button needs JavaScript.